Back to catalog

STARLINK-34167

AliveCommunicationsVLEO
NORAD 64228·PAYLOAD·🇺🇸 United States

Launched May 31, 2025 from Vandenberg Space Force Base

Loading…

Next Passes (next 24 hours)

TLE

FreshSource: CelesTrak SupGP

Epoch: Sep 14, 2026, 14:58 UTC

1 64228C 25117AB  26257.62409722 -.00028311  00000+0 -83671-3 0  2573
2 64228  53.1582 237.4399 0001513  87.6912  32.4315 15.34394718    12

Track STARLINK-34167 in real time with AllMySat

Download on the App Store